Thermopolis, WY

2:39 PM MDT on July 26, 2016 (GMT -0600)
Thermopolis

Weather History for KTBX - December, 2012

Change the Weather History Date:

Tuesday, December 4, 2012

  Actual Average (KWRL) Record (KWRL)
Temperature  
Mean Temperature 29 °F 20 °F  
Max Temperature 37 °F 33 °F 59 °F (1995)
Min Temperature 21 °F 8 °F -22 °F (1972)
Degree Days  
Heating Degree Days 36 45  
Month to date heating degree days 176  
Since 1 July heating degree days 2068  
Cooling Degree Days 0 0  
Month to date cooling degree days 0  
Year to date cooling degree days 535  
Moisture  
Dew Point 17 °F    
Average Humidity 61    
Maximum Humidity 80    
Minimum Humidity 44    
Precipitation  
Precipitation 0.00 in 0.00 in 0.17 in (1972)
Month to date precipitation 0.03  
Year to date precipitation 7.37  
Sea Level Pressure  
Sea Level Pressure 30.20 in    
Wind  
Wind Speed 13 mph ()    
Max Wind Speed 29 mph    
Max Gust Speed 36 mph    
Visibility 10.0 miles    
Events      
T = Trace of Precipitation, MM = Missing Value Source: Averaged Metar Reports

Daily Weather History Graph

Daily Weather History Graph

Search for Another Location

Airport or City:

Trip Planner

Search our weather history database for the weather conditions in past years. The results will help you decide how hot, cold, wet, or windy it might be!

Date:

Astronomy

Dec. 04, 2012 Rise Set
Actual Time 7:29 AM MST 4:37 PM MST
Civil Twilight 6:57 AM MST 5:09 PM MST
Nautical Twilight 6:21 AM MST 5:45 PM MST
Astronomical Twilight 5:47 AM MST 6:19 PM MST
Moon 10:34 PM MST (12/4) 11:19 AM MST (12/4)
Length of Visible Light 10h 11m
Length of Day
9h 07m
Waning Gibbous, 69% of the Moon is Illuminated
Dec 4
Waning Gibbous
Dec 6
Last Quarter
Dec 13
New
Dec 19
First Quarter
Dec 28
Full

Hourly Weather History & Observations

Time (MST) Temp. Windchill Dew Point Humidity Pressure Visibility Wind Dir Wind Speed Gust Speed Precip Events Conditions
12:15 AM 30.2 °F 23.4 °F 10.4 °F 44% 30.25 in 10.0 mi North 6.9 mph - N/A   Clear
12:35 AM 30.2 °F 25.4 °F 10.4 °F 44% 30.25 in 10.0 mi NNE 4.6 mph - N/A   Clear
12:55 AM 30.2 °F - 10.4 °F 44% 30.24 in 10.0 mi Calm Calm - N/A   Clear
1:15 AM 28.4 °F 23.3 °F 10.4 °F 47% 30.23 in 10.0 mi SE 4.6 mph - N/A   Clear
1:35 AM 28.4 °F 19.7 °F 12.2 °F 51% 30.23 in 10.0 mi SSE 9.2 mph - N/A   Clear
1:55 AM 26.6 °F 18.2 °F 12.2 °F 55% 30.24 in 10.0 mi SSE 8.1 mph - N/A   Clear
2:15 AM 26.6 °F 16.2 °F 14.0 °F 59% 30.25 in 10.0 mi ESE 11.5 mph - N/A   Clear
2:35 AM 26.6 °F 15.7 °F 12.2 °F 55% 30.24 in 10.0 mi SE 12.7 mph 17.3 mph N/A   Clear
2:55 AM 26.6 °F 15.2 °F 12.2 °F 55% 30.25 in 10.0 mi SE 13.8 mph - N/A   Clear
3:15 AM 24.8 °F 13.4 °F 14.0 °F 64% 30.25 in 10.0 mi SE 12.7 mph - N/A   Clear
3:35 AM 23.0 °F 10.6 °F 14.0 °F 68% 30.25 in 10.0 mi SE 13.8 mph - N/A   Clear
4:15 AM 23.0 °F 10.1 °F 14.0 °F 68% 30.24 in 10.0 mi SSE 15.0 mph 20.7 mph N/A   Clear
4:35 AM 23.0 °F 7.6 °F 14.0 °F 68% 30.23 in 10.0 mi SE 21.9 mph - N/A   Clear
4:55 AM 23.0 °F 9.6 °F 14.0 °F 68% 30.23 in 10.0 mi SE 16.1 mph 24.2 mph N/A   Clear
5:15 AM 21.2 °F 8.3 °F 14.0 °F 74% 30.24 in 10.0 mi SE 13.8 mph - N/A   Clear
5:35 AM 21.2 °F 7.8 °F 14.0 °F 74% 30.23 in 10.0 mi SE 15.0 mph - N/A   Clear
5:55 AM 23.0 °F 9.6 °F 14.0 °F 68% 30.23 in 10.0 mi SE 16.1 mph - N/A   Clear
6:15 AM 23.0 °F 11.1 °F 14.0 °F 68% 30.24 in 10.0 mi SE 12.7 mph - N/A   Clear
6:35 AM 23.0 °F 9.6 °F 14.0 °F 68% 30.23 in 10.0 mi SE 16.1 mph - N/A   Clear
6:55 AM 23.0 °F 10.1 °F 14.0 °F 68% 30.23 in 10.0 mi SE 15.0 mph - N/A   Scattered Clouds
7:15 AM 23.0 °F 8.3 °F 14.0 °F 68% 30.23 in 10.0 mi SE 19.6 mph - N/A   Overcast
7:35 AM 23.0 °F 8.3 °F 14.0 °F 68% 30.21 in 10.0 mi SE 19.6 mph - N/A   Overcast
7:55 AM 23.0 °F 8.3 °F 14.0 °F 68% 30.20 in 10.0 mi SE 19.6 mph - N/A   Scattered Clouds
8:35 AM 24.8 °F 11.1 °F 14.0 °F 64% 30.20 in 10.0 mi SSE 18.4 mph - N/A   Clear
8:55 AM 26.6 °F 12.7 °F 12.2 °F 55% 30.20 in 10.0 mi SE 20.7 mph - N/A   Mostly Cloudy
9:15 AM 24.8 °F 10.0 °F 14.0 °F 64% 30.20 in 10.0 mi SE 21.9 mph - N/A   Mostly Cloudy
9:35 AM 26.6 °F 12.7 °F 14.0 °F 59% 30.21 in 10.0 mi SE 20.7 mph 28.8 mph N/A   Scattered Clouds
10:15 AM 28.4 °F 17.5 °F 12.2 °F 51% 30.22 in 10.0 mi SE 13.8 mph - N/A   Clear
10:35 AM 28.4 °F 17.0 °F 14.0 °F 55% 30.21 in 10.0 mi SE 15.0 mph - N/A   Clear
10:55 AM 28.4 °F 14.4 °F 12.2 °F 51% 30.19 in 10.0 mi SE 23.0 mph 27.6 mph N/A   Clear
11:15 AM 28.4 °F 14.7 °F 14.0 °F 55% 30.20 in 10.0 mi SE 21.9 mph - N/A   Clear
11:35 AM 26.6 °F 15.2 °F 14.0 °F 59% 30.21 in 10.0 mi SSE 13.8 mph 19.6 mph N/A   Clear
11:55 AM 28.4 °F 16.2 °F 14.0 °F 55% 30.20 in 10.0 mi SSE 17.3 mph 26.5 mph N/A   Clear
12:15 PM 26.6 °F 15.7 °F 14.0 °F 59% 30.20 in 10.0 mi SSE 12.7 mph - N/A   Scattered Clouds
12:35 PM 28.4 °F 18.0 °F 14.0 °F 55% 30.19 in 10.0 mi SSE 12.7 mph - N/A   Scattered Clouds
12:55 PM 32.0 °F 19.5 °F 15.8 °F 51% 30.18 in 10.0 mi SSE 21.9 mph 27.6 mph N/A   Clear
1:15 PM 33.8 °F 22.5 °F 17.6 °F 52% 30.18 in 10.0 mi South 19.6 mph 25.3 mph N/A   Clear
1:35 PM 30.2 °F 18.5 °F 14.0 °F 51% 30.16 in 10.0 mi SSE 17.3 mph 23.0 mph N/A   Clear
2:15 PM 33.8 °F 21.3 °F 17.6 °F 52% 30.15 in 10.0 mi SSE 24.2 mph 32.2 mph N/A   Clear
2:35 PM 33.8 °F 22.5 °F 15.8 °F 48% 30.15 in 10.0 mi SSE 19.6 mph 28.8 mph N/A   Clear
2:55 PM 32.0 °F 22.5 °F 14.0 °F 48% 30.16 in 10.0 mi SSE 12.7 mph - N/A   Clear
3:15 PM 32.0 °F 22.1 °F 15.8 °F 51% 30.16 in 10.0 mi SSE 13.8 mph 19.6 mph N/A   Clear
3:35 PM 32.0 °F 21.6 °F 17.6 °F 55% 30.16 in 10.0 mi SSE 15.0 mph 19.6 mph N/A   Clear
3:55 PM 35.6 °F 24.8 °F 21.2 °F 56% 30.17 in 10.0 mi SSE 19.6 mph 27.6 mph N/A   Clear
4:15 PM 32.0 °F 20.8 °F 17.6 °F 55% 30.18 in 10.0 mi SE 17.3 mph 20.7 mph N/A   Clear
4:35 PM 35.6 °F 24.0 °F 21.2 °F 56% 30.17 in 10.0 mi SSE 23.0 mph 35.7 mph N/A   Clear
4:55 PM 37.4 °F 25.2 °F 21.2 °F 52% 30.16 in 10.0 mi SSE 28.8 mph 34.5 mph N/A   Clear
5:35 PM 33.8 °F 21.9 °F 19.4 °F 56% 30.16 in 10.0 mi SE 21.9 mph 28.8 mph N/A   Clear
5:55 PM 33.8 °F 23.9 °F 19.4 °F 56% 30.19 in 10.0 mi SSE 15.0 mph 24.2 mph N/A   Clear
6:15 PM 33.8 °F 23.5 °F 19.4 °F 56% 30.19 in 10.0 mi SE 16.1 mph - N/A   Clear
6:35 PM 32.0 °F 21.6 °F 17.6 °F 55% 30.20 in 10.0 mi SE 15.0 mph 19.6 mph N/A   Clear
6:55 PM 33.8 °F 23.2 °F 21.2 °F 60% 30.19 in 10.0 mi SE 17.3 mph 21.9 mph N/A   Clear
7:15 PM 32.0 °F 20.5 °F 21.2 °F 64% 30.16 in 10.0 mi SSE 18.4 mph - N/A   Clear
7:35 PM 33.8 °F 23.2 °F 23.0 °F 65% 30.18 in 10.0 mi SSE 17.3 mph 24.2 mph N/A   Clear
8:35 PM 32.0 °F 21.6 °F 23.0 °F 69% 30.19 in 10.0 mi ESE 15.0 mph - N/A   Clear
9:15 PM 33.8 °F 24.3 °F 26.6 °F 75% 30.18 in 10.0 mi SSE 13.8 mph 18.4 mph N/A   Clear
9:35 PM 35.6 °F 25.9 °F 26.6 °F 70% 30.17 in 10.0 mi SSE 16.1 mph 26.5 mph N/A   Clear
9:55 PM 32.0 °F 21.6 °F 26.6 °F 80% 30.17 in 10.0 mi SE 15.0 mph - N/A   Clear
10:15 PM 32.0 °F 23.6 °F 26.6 °F 80% 30.18 in 10.0 mi SSE 10.4 mph - N/A   Clear
10:35 PM 32.0 °F 23.6 °F 26.6 °F 80% 30.17 in 10.0 mi SE 10.4 mph - N/A   Clear
11:15 PM 33.8 °F 25.8 °F 26.6 °F 75% 30.16 in 10.0 mi SSE 10.4 mph - N/A   Clear
11:35 PM 32.0 °F 22.1 °F 26.6 °F 80% 30.15 in 10.0 mi SE 13.8 mph - N/A   Clear
11:55 PM 32.0 °F 22.5 °F 26.6 °F 80% 30.13 in 10.0 mi SE 12.7 mph - N/A   Clear